Location: Unspecified
(58.7730°N, 5.8460°E)
Time: 18:24:35
(UTC+01:00)

CZ-3 Stage 3 - Visible Passes

Search period start: 07 February 2016 00:00
Search period end: 17 February 2016 00:00
Orbit: 369 x 34841 km, 30.4° (Epoch: 06 February)

Date Brightness Start Highest point End Pass type
(mag) Time Alt. Az. Time Alt. Az. Time Alt. Az.
08 Feb 8.0 17:27:07 10° SSW 17:35:31 13° S 17:53:24 10° SSE visible
11 Feb 8.1 17:20:41 10° SSW 17:27:56 12° S 17:41:20 10° SSE visible
14 Feb 8.2 17:14:46 10° SSW 17:20:16 11° S 17:28:38 10° S visible
